Das Wetter in  D-61279 Heinzenberg / Taunus





Wetter Minimum- & Maximum-Werte im Dezember 2015

Standort: Heinzenberg / Taunus - Höhe 297 m         8 24' 1" Ost 50 21' 51" Nord
(   3-stündige Aktualisierung    letzte Aktualisierung um 19:04 am 31.12.2015  )


Messgrösse

Minimum

Maximum

Durchschnitt

Temperatur West /
Luftfeuchte West
Anklicken für Monats-Diagramm

-2,3 C

23:31
10.12.2015

60 %

14:54
07.12.2015

17,3 C

15:09
07.12.2015

94 %

15:39
01.12.2015

Temp

6,9 C

Feuchte

84 %

Temperatur Ost /
Luftfeuchte Ost
Anklicken für Monats-Diagramm

-2,0 C

23:51
10.12.2015

--

--
--

17,6 C

15:14
07.12.2015

--

--
--

7,1 C

--

Luftdruck Anklicken für Monats-Diagramm

1016,0 hPa

01:14
01.12.2015

1040,1 hPa

00:46
10.12.2015

1026,5 hPa

Taupunkt

-4,0 C

23:31
10.12.2015

11,0 C

14:06
17.12.2015

4,4 C

Windchill
( gefühlte Temperatur )

-9,8 C

00:46
11.12.2015

17,3 C

15:09
07.12.2015

4,3 C

Windgeschwindigkeit /
Windrichtung
Anklicken für Monats-Diagramm

---

49,0 km/h / W

01:49
01.12.2015

8,7 km/h
W-SW

Helligkeit /
Sonnenschein
Anklicken für Monats-Diagramm
Anklicken für Monats-Diagramm

Sonnenschein:

64:52 Stunden

Max: 6:45 Std am
08.12.2015

42,6 klux

13:14
21.12.2015

9,1 klux

Solarstrahlung Anklicken für Monats-Diagramm

---

291 W/m

13:14
21.12.2015

71 W/m

Regenmenge
    Dezember 2015
Anklicken für Monats-Diagramm

Insgesamt 54,1 l/m

in 90:32 Stunden
an 19 Tagen

10,0 l/m

15:51
11.12.2015

Gesamtmenge

54,1 l/m

Regen-Tage
    Dezember 2015
Anklicken für Monats-Diagramm

>   0 mm/Tag

>   2 mm/Tag

>   5 mm/Tag

> 10 mm/Tag

> 20 mm/Tag

19 Tage     
10 Tage     
3 Tage     
  1 Tag     
0 Tage     

Eisige Tage Dezember 2015 / 2014

Tmin ≤ -10C     

0 Tage

/

0 Tage

Eistage Dezember 2015 / 2014

Tmax <     0C     

0 Tage

/

2 Tage

Frosttage Dezember 2015 / 2014

Tmin ≤     0C     

7 Tage

/

14 Tage

Kalte Tage Dezember 2015 / 2014

Tmax <   10C     

10 Tage

/

29 Tage

Warme Tage Dezember 2015 / 2014

Tmax ≥   20C     

0 Tage

/

0 Tage

Sommertage Dezember 2015 / 2014

Tmax ≥   25C     

0 Tage

/

0 Tage

Heisse Tage Dezember 2015 / 2014

Tmax ≥   30C     

0 Tage

/

0 Tage


Monatsdiagramm Dezember 2015

Die Kurven zeigen den Durchschnittswert des jeweiligen Tages an


Wetter-Monatsübersicht Dezember 2015
Datum
  Temperatur
   Luftdruck
   Wind
  Regen
   Luftfeuchte
   Helligkeit

Sonnen-
schein


Temp.

Min.
Temp.

Max.
Temp.


Luftdruck

Min.
Luftdruck

Max.
Luftdruck

-Geschw.
Haupt-Richtg.

Max.
Wind

Menge /
Dauer


Feuchte

Min.
Feuchte

Max.
Feuchte


Helligkeit

Max.
Helligkeit

1.
Dezember
9,6 C8,8 C
00:04
10,6 C
19:09
1022,7 hPa1016,0 hPa
01:14
1027,2 hPa
23:05
18,3 km/h
W
49,0 km/h
01:49  
8,8 l/m
16:26 Stunden
92 %90 %
00:09
94 %
15:39
3,9 klux11,8 klux
11:14
--- 
2.
Dezember
8,4 C7,3 C
20:55
10,0 C
00:00
1028,9 hPa1027,2 hPa
00:00
1029,6 hPa
20:55
8,7 km/h
W-SW
24,8 km/h
00:20  
0,8 l/m
2:25 Stunden
83 %76 %
23:31
92 %
00:00
2,6 klux5,6 klux
12:10
--- 
3.
Dezember
6,0 C1,2 C
23:21
9,4 C
15:16
1029,3 hPa1026,2 hPa
21:31
1030,8 hPa
08:56
2,5 km/h
SW
14,4 km/h
09:21  
---
77 %66 %
15:16
87 %
23:41
8,24 klux34,00 klux
13:26
1:30 Std 
4.
Dezember
5,4 C1,2 C
00:01
8,3 C
14:51
1028,9 hPa1024,7 hPa
07:26
1034,5 hPa
23:57
7,2 km/h
W-SW
25,0 km/h
07:51  
2,9 l/m
3:55 Stunden
87 %79 %
06:11
90 %
11:36
3,3 klux13,7 klux
14:31
--- 
5.
Dezember
3,9 C0,3 C
06:17
7,1 C
15:02
1030,6 hPa1026,8 hPa
21:27
1034,7 hPa
02:32
6,2 km/h
SW
27,6 km/h
11:47  
---
86 %79 %
17:52
92 %
04:17
12,1 klux32,9 klux
11:22
1:55 Std 
6.
Dezember
7,1 C4,0 C
01:48
11,9 C
15:18
1026,5 hPa1024,8 hPa
06:08
1029,4 hPa
21:59
15,1 km/h
W-SW
33,2 km/h
10:38  
---
81 %70 %
15:23
86 %
02:08
9,7 klux38,2 klux
13:13
2:30 Std 
7.
Dezember
8,8 C3,0 C
23:59
17,3 C
15:09
1031,9 hPa1029,4 hPa
00:04
1034,3 hPa
23:44
2,7 km/h
SO
19,5 km/h
01:04  
---
79 %60 %
14:54
88 %
23:59
15,9 klux42,1 klux
11:59
5:05 Std 
8.
Dezember
4,3 C-0,5 C
08:49
13,2 C
15:24
1031,4 hPa1028,9 hPa
15:24
1033,5 hPa
02:54
1,7 km/h
SO
13,5 km/h
21:49  
---
86 %72 %
15:29
92 %
12:29
18,0 klux31,9 klux
12:24
6:45 Std 
9.
Dezember
4,9 C-0,6 C
23:41
9,3 C
15:05
1035,7 hPa1029,6 hPa
00:00
1040,0 hPa
23:41
4,6 km/h
W
20,1 km/h
13:05  
3,2 l/m
4:35 Stunden
86 %74 %
14:40
91 %
04:45
11,0 klux38,1 klux
12:50
2:30 Std 
10.
Dezember
1,3 C-2,3 C
23:31
7,7 C
14:51
1035,2 hPa1029,9 hPa
23:26
1040,1 hPa
00:46
2,4 km/h
W-SW
16,9 km/h
14:26  
---
20 Minuten
86 %72 %
15:06
91 %
10:26
18,5 klux36,3 klux
12:36
6:40 Std 
11.
Dezember
2,4 C-2,2 C
00:01
7,0 C
23:42
1026,4 hPa1021,4 hPa
23:02
1029,9 hPa
00:01
8,5 km/h
W-SW
31,4 km/h
23:42  
10,0 l/m
11:41 Stunden
89 %87 %
09:31
92 %
23:02
3,1 klux8,5 klux
10:56
--- 
12.
Dezember
6,7 C5,1 C
07:57
8,5 C
21:42
1022,8 hPa1018,1 hPa
23:23
1025,7 hPa
10:32
11,5 km/h
W-SW
34,6 km/h
02:47  
2,1 l/m
7:31 Stunden
90 %85 %
13:52
92 %
00:02
4,81 klux21,10 klux
12:32
--- 
13.
Dezember
7,0 C4,7 C
22:54
8,5 C
00:13
1020,3 hPa1017,1 hPa
01:48
1023,8 hPa
22:54
12,9 km/h
W
34,0 km/h
07:23  
1,8 l/m
4:57 Stunden
87 %81 %
03:33
91 %
16:08
2,6 klux8,0 klux
12:33
--- 
14.
Dezember
5,3 C1,3 C
23:59
11,4 C
14:54
1022,3 hPa1019,8 hPa
15:04
1023,8 hPa
00:54
0,6 km/h
O-SO
13,3 km/h
13:49  
---
10 Minuten
89 %77 %
15:19
93 %
05:49
14,39 klux37,50 klux
12:44
4:00 Std 
15.
Dezember
2,6 C0,5 C
01:39
6,3 C
14:59
1024,7 hPa1023,1 hPa
05:59
1027,2 hPa
23:40
0,0 km/h
O-SO
2,8 km/h
05:24  
---
10 Minuten
91 %89 %
00:04
92 %
09:04
7,4 klux29,0 klux
11:40
36 Min 
16.
Dezember
7,1 C1,7 C
01:20
11,0 C
23:41
1025,3 hPa1024,1 hPa
18:55
1027,3 hPa
01:20
6,8 km/h
W-SW
23,5 km/h
23:31  
5,9 l/m
10:41 Stunden
92 %92 %
00:00
94 %
07:55
2,4 klux7,3 klux
14:40
--- 
17.
Dezember
11,7 C10,5 C
07:46
13,3 C
14:06
1024,3 hPa1021,7 hPa
23:42
1026,1 hPa
08:56
11,1 km/h
W-SW
26,5 km/h
03:06  
0,6 l/m
1:46 Stunden
89 %86 %
12:01
93 %
00:01
5,83 klux22,30 klux
11:31
5 Min 
18.
Dezember
10,9 C9,8 C
08:17
12,6 C
13:32
1023,0 hPa1020,7 hPa
01:27
1024,1 hPa
09:57
9,0 km/h
W-SW
22,1 km/h
11:57  
1,4 l/m
2:35 Stunden
85 %79 %
15:37
90 %
08:42
7,6 klux39,6 klux
13:17
45 Min 
19.
Dezember
10,3 C5,4 C
23:59
12,5 C
12:13
1023,0 hPa1021,5 hPa
22:44
1024,1 hPa
00:48
4,6 km/h
SW
20,6 km/h
08:23  
---
84 %80 %
12:18
89 %
23:24
6,1 klux31,4 klux
11:53
30 Min 
20.
Dezember
7,8 C2,7 C
04:59
11,4 C
23:34
1020,4 hPa1018,8 hPa
15:14
1021,7 hPa
00:49
6,0 km/h
W-SW
26,1 km/h
11:09  
---
85 %79 %
15:24
93 %
08:34
7,0 klux20,1 klux
11:34
5 Min 
21.
Dezember
9,5 C7,7 C
09:09
11,5 C
00:04
1022,8 hPa1020,8 hPa
00:04
1025,2 hPa
23:45
22,9 km/h
W-SW
43,9 km/h
21:34  
3,6 l/m
5:00 Stunden
80 %71 %
14:24
89 %
05:39
9,8 klux42,6 klux
13:14
1:40 Std 
22.
Dezember
10,0 C8,6 C
07:40
12,1 C
13:35
1024,8 hPa1023,1 hPa
22:00
1026,3 hPa
07:15
18,8 km/h
W-SW
42,8 km/h
01:00  
4,9 l/m
3:55 Stunden
80 %71 %
23:06
90 %
08:40
8,2 klux39,1 klux
13:15
55 Min 
23.
Dezember
8,9 C3,2 C
23:57
12,7 C
14:21
1025,8 hPa1022,1 hPa
03:11
1030,0 hPa
22:16
17,8 km/h
W-SW
44,2 km/h
06:31  
---
20 Minuten
77 %68 %
14:46
86 %
23:57
9,8 klux36,8 klux
13:16
2:01 Std 
24.
Dezember
8,4 C3,1 C
00:22
11,6 C
12:47
1024,2 hPa1021,8 hPa
12:47
1029,1 hPa
00:22
14,2 km/h
W-SW
41,7 km/h
20:42  
---
10 Minuten
84 %74 %
23:08
92 %
07:57
13,1 klux39,9 klux
12:42
3:20 Std 
25.
Dezember
9,6 C7,6 C
10:28
11,4 C
22:49
1027,6 hPa1024,0 hPa
00:03
1029,6 hPa
10:28
12,3 km/h
W-SW
33,9 km/h
00:13  
4,9 l/m
10:00 Stunden
85 %74 %
00:03
90 %
12:03
2,5 klux7,3 klux
11:48
--- 
26.
Dezember
10,8 C7,1 C
23:55
15,0 C
14:29
1027,6 hPa1025,6 hPa
14:39
1028,3 hPa
03:04
17,1 km/h
W-SW
38,4 km/h
10:19  
---
77 %65 %
14:14
83 %
23:30
18,18 klux33,40 klux
11:34
6:25 Std 
27.
Dezember
8,4 C3,7 C
23:56
13,2 C
14:20
1028,5 hPa1026,3 hPa
04:05
1032,2 hPa
23:56
8,1 km/h
W-SW
29,3 km/h
04:45  
---
78 %66 %
14:50
88 %
02:10
13,7 klux29,8 klux
11:40
4:40 Std 
28.
Dezember
3,3 C-1,0 C
08:56
11,9 C
15:21
1029,5 hPa1025,6 hPa
22:32
1032,3 hPa
01:11
1,0 km/h
SO
15,5 km/h
14:11  
---
84 %70 %
15:36
91 %
12:36
15,3 klux33,0 klux
12:41
5:15 Std 
29.
Dezember
4,6 C-0,7 C
05:52
11,3 C
14:47
1027,7 hPa1024,7 hPa
02:47
1030,9 hPa
23:08
1,6 km/h
W-SW
20,3 km/h
11:52  
---
80 %68 %
14:37
89 %
11:02
16,2 klux32,1 klux
12:47
6:05 Std 
30.
Dezember
4,1 C2,9 C
03:48
6,0 C
00:03
1027,9 hPa1020,7 hPa
23:14
1032,3 hPa
03:48
9,6 km/h
O-SO
34,8 km/h
19:53  
---
83 %79 %
18:38
87 %
09:02
3,2 klux6,7 klux
10:38
--- 
31.
Dezember
3,5 C-1,2 C
23:40
10,4 C
15:14
1022,8 hPa1019,8 hPa
00:54
1026,6 hPa
23:40
6,0 km/h
W-SW
25,4 km/h
00:44  
3,2 l/m
3:55 Stunden
85 %78 %
15:19
89 %
11:04
8,02 klux29,90 klux
14:19
1:35 Std 



Dezember
2015

Temperatur

  

Luftdruck

  

Wind

  

Regen

  

Luftfeuchte

  

Helligkeit

Sonnen-
schein

Min

Max

Min

Max

Max

Max

Min

Max

Max

Max

6,9 C

-2,3 C

23:31 Uhr
10.12.2015

17,3 C

15:09 Uhr
07.12.2015

1026,5 hPa

1016,0 hPa

01:14 Uhr
01.12.2015

1040,1 hPa

00:46 Uhr
10.12.2015

8,7 km/h

W-SW

49,0 km/h

01:49 Uhr
01.12.2015

10,0 l/m

11:41 Stunden
11.12.2015

84 %

60 %

14:54 Uhr
07.12.2015

94 %

15:39 Uhr
01.12.2015

9,1 klux

42,6 klux

13:14 Uhr
21.12.2015

6:45 Std

am
08.12.2015

Gesamt

Gesamt

54,1 l/m

19 Tage
90:32 h

64:52 Std


Wetter-Diagramme Dezember 2015     Heinzenberg / Taunus   
TemperaturLuftfeuchte
SolarstrahlungLuftdruck
HelligkeitSonnenschein
RegenmengeRegendauer
Wind-GeschwindigkeitWind-Richtung